Aérodrome :
LOGIN :

S'inscrire | Disclaimer

   EN    FR    IT 

 










Légende :    VFR   VFR Marginal   IFR   IFR Intensif   IFR Très Intensif
Visi : 
Plafond : 
>= 8 km
>= 3000ft
5 à 8 km
1000 à 3000 ft
1500m à 5 km
500 à 1000 ft
800 à 1500m
200 à 500 ft
< 800m
< 200 ft
Symboles :   Orages  Brouillard  Fortes neiges  Fortes précipitations  Vent > 20 kt
SIGMETs :   Divers  Orages  Givrage  Turbulence  Onde Orograph.  Cendres Volcan.







- Altitude de l'aérodrome : 1325 ft
- Code IATA : EBU
- Voir les cartes d'approche


LFMH - St-Etienne Boutheon

DERNIER METAR :
  • 251730Z AUTO 35009KT 290V020 8000 NSC 24/11 Q1019 NOSIG

METARs EXPIRÉS :
  • 251700Z AUTO 34011KT 310V020 9000 NSC 24/11 Q1019 NOSIG
  • 251630Z AUTO 35011KT 9000 NSC 24/11 Q1019 NOSIG
  • 251600Z AUTO 34011KT 300V020 9000 NSC 24/11 Q1019 NOSIG
  • 251530Z AUTO 34010KT 280V010 9000 NSC 25/11 Q1019 NOSIG
  • 251500Z AUTO 34010KT 300V030 9000 BKN058 24/11 Q1019 NOSIG

TAF TAF LFMH
Valide du 25 à 15h jusqu'au 26 à 15h UTC


251400Z 2515/2615 34010G20KT CAVOK
TEMPO 2521/2609 36005KT
ATIS : +33 4 77 36 17 51
Pas de NOTAMs connus pour ce terrain.



MET'MAP, la Météo Aéronautique d'un coup d'oeil ! - Copyright ORBIFLY Décembre 2007 - Disclaimer

ORBIFLY MET'MAP TEAM :

Programmation & Développement : Alexandra Zaïnal
Conception & Développement : Baudouin d'Aumeries
Co-Programmation & Développement : Marc-Olivier Méhu
Soutien technique & logistique : Manuel Goepfert

Contact : metmap@orbifly.com




SOURCES & CREDITS :

   NOAA